Tracking 27126 objects as of 30-Mar-2023
HD Live streaming from Space Station
objects crossing your sky now

STARLINK-4287

Track STARLINK-4287 now!
10-day predictions
STARLINK-4287 is classified as:


NORAD ID: 53020
Int'l Code: 2022-076AL
Perigee: 546.2 km
Apogee: 547.4 km
Inclination: 53.2 °
Period: 95.4 minutes
Semi major axis: 6917 km
RCS: Unknown
Launch date: July 7, 2022
Source: United States (US)
Launch site: AIR FORCE EASTERN TEST RANGE (AFETR)
Your satellite tracking list
Your tracking list is empty




NASA's NSSDC Master Catalog

Two Line Element Set (TLE):
1 53020U 22076AL  23088.68658439  .00034417  00000-0  21692-2 0  9998
2 53020  53.2149 234.4866 0000861  87.5646 272.5444 15.08854090 40541
Source of the keplerian elements: AFSPC